Regional Weather Roundup
Issued by NWS Midland/Odessa, TX

Home | Current Version | Previous Version | Text Only | Print | Product List | Glossary On
Versions: 1 2 3 4 5 6 7 8 9 10 11 12 13 14 15 16 17 18 19 20 21 22 23 24 25 26 27 28 29 30 31 32 33 34 35 36 37 38 39 40 41 42 43 44 45 46 47 48 49 50
040
ASUS44 KMAF 130801
RWRMAF
MIDLAND AREA WEATHER ROUNDUP
NATIONAL WEATHER SERVICE MIDLAND TX
200 AM CST SAT FEB 13 2016

...IN SOUTHWEST TEXAS AND SOUTHEAST NEW MEXICO...

CITY           SKY/WX    TMP DP  RH WIND       PRES   REMARKS
ALPINE         PTCLDY    40  20  43 W5        30.37S WCI  37
ANDREWS        FAIR      40  29  64 E5        30.32S WCI  37
ARTESIA        CLOUDY    37  23  56 CALM      30.31S
BIG SPRING     CLEAR     41  28  60 N3        30.35R
CARLSBAD       CLOUDY    36  25  64 CALM      30.29S
DRYDEN           N/A     53  29  39 N10       30.25R
FORT STOCKTON  CLEAR     52  27  38 S12       30.28F
GUAD PASS      CLOUDY    51  15  23 NE24      30.33F
HOBBS          CLOUDY    39  27  60 E6        30.33S WCI  35
MARFA          CLOUDY    33  17  51 N8        30.34F WCI  26
MIDLAND AIRPK  CLOUDY    44  32  61 E5        30.33R
MIDLAND INTL   CLEAR     48  32  53 E8        30.31S
ODESSA         CLOUDY    42  31  64 E10       30.31F WCI  36
PECOS          CLOUDY    37  25  62 NW5       30.27S WCI  33
PRESIDIO       FAIR      57  17  20 N15       30.23S
SEMINOLE       CLEAR     42  29  61 E5        30.34S WCI  39
SNYDER           N/A     46  33  61 E8        30.35R
WINK           CLEAR     39  28  64 N7        30.27F WCI  34
$$
...OTHER STATIONS IN TEXAS...

CITY           SKY/WX    TMP DP  RH WIND       PRES   REMARKS
ABILENE        CLEAR     42  33  70 SE6       30.34R WCI  38
AMARILLO       CLOUDY    34  30  85 SE13      30.33F WCI  25
AUSTIN         CLEAR     49  39  68 N8        30.29S
BROWNSVILLE    MOCLDY    58  58 100 SE5       30.26R
CORPUS CHRISTI PTCLDY    56  55  97 SE5       30.26R
DALLAS FTW     CLEAR     46  32  58 N10       30.38R
DEL RIO        CLEAR     54  38  54 CALM      30.26R
EL PASO        PTCLDY    48  15  26 N3        30.25F
HOUSTON INT    PTCLDY    56  54  93 NE3       30.28R
LUBBOCK        CLOUDY    37  30  75 E10       30.34S WCI  30
SAN ANGELO     CLEAR     44  33  65 NE7       30.32R
SAN ANTONIO    CLEAR     54  42  64 N3        30.28S
WACO           PTCLDY    45  36  70 N7        30.34R
WICHITA FALLS  NOT AVBL
$$
...OTHER LOCATIONS IN NEW MEXICO...

CITY           SKY/WX    TMP DP  RH WIND       PRES   REMARKS
ALAMAGORDO     CLEAR     45   7  21 N7        30.26F
ALBUQUERQUE    CLOUDY    45  20  36 N8        30.32S
CANNON AFB     CLOUDY    37  25  62 S5        30.34S WCI  34
CLOVIS         CLEAR     34  21  60 CALM      30.35S
HOLLOMAN AFB   CLOUDY    35   6  29 N5        30.26F WCI  31
ROSWELL        CLOUDY    37  23  56 CALM      30.30F
RUIDOSO          N/A     43  12  28 CALM      30.39F
SANTA FE       CLOUDY    34  21  59 N7        30.34F WCI  28
TRUTH OR CONSE CLEAR     46   8  21 NW10      30.28F
TUCUMCARI      CLOUDY    42  25  50 S8        30.30F WCI  37
$$




USA.gov is the U.S. government's official web portal to all federal, state and local government web resources and services.